This is the latest recevied weather packets stored in our database for station/object N9XRG. If no packets are shown the sender has not sent any weather packets the latest 10 day(s).
| Time | Temp. | Humidity | Pressure | Rain* | Wind** | Luminosity | Snow |
|---|---|---|---|---|---|---|---|
| 1778000990 | 12.22° C | 79% | 1008.7 hPa | 0.51 mm | - | 158 W/m² | - |
| 1778000687 | 12.22° C | 77% | 1008.9 hPa | 0.51 mm | - | 147 W/m² | - |
| 1778000382 | 12.78° C | 75% | 1008.4 hPa | 0.51 mm | - | 126 W/m² | - |
| 1778000078 | 12.78° C | 70% | 1008.2 hPa | 0.51 mm | - | 117 W/m² | - |
| 1777999774 | 12.78° C | 68% | 1008.2 hPa | 0 mm | - | 110 W/m² | - |
| 1777999471 | 12.78° C | 67% | 1008.1 hPa | 0 mm | - | 118 W/m² | - |
| 1777999169 | 12.78° C | 66% | 1008.3 hPa | 0 mm | - | 134 W/m² | - |
| 1777998867 | 12.78° C | 64% | 1008.3 hPa | 0 mm | - | 157 W/m² | - |
| 1777998566 | 12.78° C | 65% | 1008.3 hPa | 0 mm | - | 181 W/m² | - |
| 1777998261 | 12.22° C | 68% | 1008.4 hPa | 0 mm | - | 199 W/m² | - |
| 1777997958 | 12.22° C | 65% | 1008.7 hPa | 0 mm | - | 147 W/m² | - |
| 1777997655 | 12.22° C | 68% | 1008.6 hPa | 0 mm | - | 109 W/m² | - |
| 1777997353 | 12.22° C | 66% | 1008.4 hPa | 0 mm | - | 89 W/m² | - |
| 1777997051 | 12.22° C | 66% | 1008.6 hPa | 0 mm | - | 81 W/m² | - |
| 1777996747 | 12.22° C | 65% | 1008.7 hPa | 0 mm | - | 85 W/m² | - |
| 1777996443 | 12.22° C | 71% | 1008.4 hPa | 0 mm | - | 108 W/m² | - |
| 1777996140 | 12.22° C | 68% | 1008.3 hPa | 0 mm | - | 140 W/m² | - |
| 1777995836 | 12.22° C | 66% | 1008.3 hPa | 0 mm | - | 124 W/m² | - |
| 1777995532 | 12.22° C | 66% | 1008.4 hPa | 0 mm | - | 101 W/m² | - |
| 1777995229 | 12.22° C | 66% | 1008.5 hPa | 0 mm | - | 104 W/m² | - |
| 1777994927 | 12.22° C | 66% | 1008.3 hPa | 0 mm | - | 156 W/m² | - |
| 1777994624 | 12.22° C | 66% | 1008.3 hPa | 0 mm | - | 99 W/m² | - |
| 1777994323 | 12.22° C | 68% | 1008.7 hPa | 0 mm | - | 114 W/m² | - |
| 1777994020 | 12.22° C | 68% | 1008.6 hPa | 0 mm | - | 141 W/m² | - |
| 1777993717 | 12.78° C | 67% | 1008.5 hPa | 0 mm | - | 143 W/m² | - |
* Rain latest hour (hover to see other rain measurements)
** Current wind speed in m/s (hover to see current wind gust speed)